SL-16 DEB, 23706

Orbit data source: Space-Track

SL-16 DEB, 23706 is space debris in LEO originally from a launch on Tue, 31 Oct 1995 UTC launched from the Tyuratam Missile And Space Complex (TTMTR). Debris objects in space refer to the collection of defunct objects orbiting the Earth. Examples of debris include non-operational satellites, rocket bodies, and fragments generated from explosions, collisions, or faulty payload assembly.

Loading next visibility...
Identifier
23706, 1995-058C
Orbit
LEO
Country
Flag of CISCIS
Related business
Manufacturer
Yuzhnoe
Mission
Spacecraft
Bus & Motor
SEP MOTOR COVER, Unknown motor
Mass
~0 kg wet, ~1 kg dry
Launch date (UTC)
1995-10-31 (30 years ago)
Launch vehicle
Unknown
Launch site
Tyuratam Missile And Space Complex (TTMTR)
Object type
Payload
Rocket body
Debris
Shape & HBR
Unknown
Radar Cross Section
Small (<0.1 m²)

Expand to show TLE details & history
Last TLE update: 21 hours ago

TLE from 21 hours ago
0 SL-16 DEB
1 23706U 95058C   25260.43151905  .00000104  00000-0  13444-3 0  9992
2 23706  70.9978 250.6448 0196547  70.8296  79.5228 13.74336754497841
Epoch: 2025-09-17T10:21Z
TLE epoch observation values (Epoch: 2025-09-17T10:21:23.245Z)
Latitude
25.85668°
Longitude
-90.86647°
Altitude
963.078 km
Speed
7.384 km/s
True Right ascension
04h 04m 21s
True Declination
25° 43' 33"
Sunlit
Object was in daylight at epoch
Visualization orbit readout
Latitude
Unknown
Longitude
Unknown
Altitude
Unknown
Speed
Unknown
Apparent Right ascension
Unknown
Apparent Declination
Unknown
Sunlit
N/A
Visualization observer readout
Local Sidereal Time
00:19:59
Azimuth
Unknown
Elevation
Unknown
Doppler factor
Unknown
Orbital elements
Apogee altitude
1,126.668 km
Perigee altitude
837.345 km
Semi-major axis
7,360.143 km
Eccentricity
0.01965
Inclination
70.9978°
RAAN
250.6448°
Arg. of periapsis
70.8296°
True anomaly
81.74689°
Mean anomaly
79.5228°
Eccentric anomaly
80.63392°
Mean motion
3.43727 °/min
Orbital period
104.73 mins
BSTAR
0.00013444
Loading maneuver chart data...
Computing Atmospheric mass density...
Loading historical data...
Loading historical data...
Loading historical data...
Loading historical data...
Loading historical data...
Loading historical data...
Loading historical data...

Documentation

Showing up to 5 results
|